This is the latest recevied weather packets stored in our database for station/object NR6G-12. If no packets are shown the sender has not sent any weather packets the latest 1 day(s).
| Time | Temp. | Humidity | Pressure | Rain* | Wind** | Luminosity | Snow |
|---|---|---|---|---|---|---|---|
| 1778032022 | 6.67° C | 94% | 1014.3 hPa | 0 mm | 0 m/s | - | - |
| 1778031662 | 7.22° C | 94% | 1014.3 hPa | 0 mm | 0 m/s | - | - |
| 1778031303 | 7.22° C | 94% | 1014.2 hPa | 0 mm | 0 m/s | - | - |
| 1778030942 | 7.22° C | 94% | 1014.2 hPa | 0 mm | 0 m/s | - | - |
| 1778030582 | 7.22° C | 96% | 1014.3 hPa | 0 mm | 0 m/s | - | - |
| 1778030222 | 7.22° C | 96% | 1014.4 hPa | 0 mm | 0 m/s | - | - |
| 1778029862 | 6.67° C | 96% | 1014.3 hPa | 0 mm | 0 m/s | - | - |
| 1778029504 | 6.67° C | 96% | 1014.4 hPa | 0 mm | 0 m/s | - | - |
| 1778029142 | 6.67° C | 96% | 1014.4 hPa | 0 mm | 0 m/s | - | - |
| 1778028782 | 6.67° C | 97% | 1014.4 hPa | 0 mm | 0 m/s | - | - |
| 1778028422 | 6.11° C | 97% | 1014.3 hPa | 0 mm | 0 m/s | - | - |
| 1778028062 | 6.11° C | 97% | 1014.3 hPa | 0 mm | 0 m/s | - | - |
| 1778027703 | 6.11° C | 97% | 1014.2 hPa | 0 mm | 0 m/s | - | - |
| 1778027342 | 6.11° C | 97% | 1014.2 hPa | 0 mm | 0 m/s | - | - |
| 1778026982 | 5.56° C | 97% | 1014.2 hPa | 0 mm | 0 m/s | - | - |
| 1778026622 | 5.56° C | 97% | 1014.2 hPa | 0 mm | 0 m/s | - | - |
| 1778026262 | 5.56° C | 96% | 1014.2 hPa | 0 mm | 0 m/s | - | - |
| 1778025902 | 5.56° C | 96% | 1014.2 hPa | 0 mm | 0.45 m/s, 172° | - | - |
| 1778025542 | 5.56° C | 97% | 1014.2 hPa | 0 mm | 0 m/s | - | - |
| 1778025182 | 5.56° C | 97% | 1014.1 hPa | 0 mm | 0 m/s | - | - |
| 1778024822 | 5.56° C | 96% | 1014.3 hPa | 0 mm | 0 m/s | - | - |
| 1778024462 | 5.56° C | 96% | 1014.4 hPa | 0 mm | 0 m/s | - | - |
| 1778024102 | 5.56° C | 96% | 1014.4 hPa | 0 mm | 0 m/s | - | - |
| 1778023742 | 5.56° C | 97% | 1014.3 hPa | 0 mm | 0 m/s | - | - |
| 1778023382 | 6.11° C | 97% | 1014.3 hPa | 0 mm | 0 m/s | - | - |
* Rain latest hour (hover to see other rain measurements)
** Current wind speed in m/s (hover to see current wind gust speed)